Back to catalog

SATURN

AliveScienceSSO
NORAD 57174·PAYLOAD·🇷🇺 Russia
This satellite name has not been confirmed by official sources yet.

Launched Jun 27, 2023 from Vostochny Cosmodrome

Loading…

Next Passes (next 24 hours)

TLE

FreshSource: Space-Track

Epoch: Sep 14, 2026, 14:22 UTC

1 57174U 23091J   26257.59918380  .00002432  00000-0  13572-3 0  9996
2 57174  97.4960 309.4089 0012701 191.9729 168.1203 15.14437949177163

Track SATURN in real time with AllMySat

Download on the App Store